Location: Corralito
(10.2667°N, 66.9500°W)
Time: 04:46:54
(UTC+00:00)

Cosmos 1331 Rocket - Pass Details

Date: 05 December 2023
Orbit: 748 x 775 km, 74.0° (Epoch: 22 February)

Event Time Altitude Azimuth Distance (km) Brightness Sun altitude
Rises 22:57:02 0° 183° (S) 3,234 7.6 -12.7°
Reaches altitude 10° 22:59:27 10° 179° (S) 2,310 6.7 -13.3°
Maximum altitude 23:04:34 56° 102° (ESE) 918 4.1 -14.5°
Enters shadow 23:09:01 14° 26° (NNE) 2,057 5.8 -15.5°
